Stations météo

réclame
Mon MeteoGroup
Gijon, Espagne (8014): Température de l'air & dewpoint: 18.10.2018 07:00:00 - 24.10.2018 07:00:00 (CEST)Gijon, Espagne (8014): Vitesse du vent: 18.10.2018 07:00:00 - 24.10.2018 07:00:00 (CEST)Gijon, Espagne (8014): Direction du vent: 18.10.2018 07:00:00 - 24.10.2018 07:00:00 (CEST)Gijon, Espagne (8014): reduced air pressure: 18.10.2018 07:00:00 - 24.10.2018 07:00:00 (CEST)Gijon, Espagne (8014): visibility: 18.10.2018 07:00:00 - 24.10.2018 07:00:00 (CEST)
Date & Time tt [°C] td [°C] ff [km/h] ff [knt] dd ppp [hPa] vv [km]
24.10.2018 07:00:00 - - - - - - -
24.10.2018 06:00:00 - - - - - - -
24.10.2018 05:00:00 - - - - - - -
24.10.2018 04:00:00 - - - - - - -
24.10.2018 03:00:00 - - - - - - -
24.10.2018 02:00:00 - - - - - - -
24.10.2018 01:00:00 - - - - - - -
24.10.2018 00:00:00 - - - - - - -
23.10.2018 23:00:00 - - - - - - -
23.10.2018 22:00:00 - - - - - - -
23.10.2018 21:00:00 - - - - - - -
23.10.2018 20:00:00 16,1 13,4 9 5 E 1029,7 20
23.10.2018 19:00:00 - - - - - - -
23.10.2018 18:00:00 - - - - - - -
23.10.2018 17:00:00 - - - - - - -
23.10.2018 16:00:00 - - - - - - -
23.10.2018 15:00:00 - - - - - - -
23.10.2018 14:00:00 18,2 14,9 11 6 E 1030,9 20
23.10.2018 13:00:00 - - - - - - -
23.10.2018 12:00:00 - - - - - - -
23.10.2018 11:00:00 16,8 15,0 4 2 ENE 1030,6 15
23.10.2018 10:00:00 - - - - - - -
23.10.2018 09:00:00 - - - - - - -
23.10.2018 08:00:00 14,2 13,1 0 0 N 1030,0 15
23.10.2018 07:00:00 - - - - - - -
23.10.2018 06:00:00 - - - - - - -
23.10.2018 05:00:00 - - - - - - -
23.10.2018 04:00:00 - - - - - - -
23.10.2018 03:00:00 - - - - - - -
23.10.2018 02:00:00 - - - - - - -
23.10.2018 01:00:00 - - - - - - -
23.10.2018 00:00:00 - - - - - - -
22.10.2018 23:00:00 - - - - - - -
22.10.2018 22:00:00 - - - - - - -
22.10.2018 21:00:00 - - - - - - -
22.10.2018 20:00:00 17,2 15,2 4 2 E 1030,1 20
22.10.2018 19:00:00 - - - - - - -
22.10.2018 18:00:00 - - - - - - -
22.10.2018 17:00:00 18,3 14,0 9 5 ENE 1029,2 20
22.10.2018 16:00:00 - - - - - - -
22.10.2018 15:00:00 - - - - - - -
22.10.2018 14:00:00 19,7 14,3 5 3 E 1029,1 15
22.10.2018 13:00:00 - - - - - - -
22.10.2018 12:00:00 - - - - - - -
22.10.2018 11:00:00 17,5 13,8 0 0 N 1028,6 10
22.10.2018 10:00:00 - - - - - - -
22.10.2018 09:00:00 - - - - - - -
22.10.2018 08:00:00 16,5 15,2 0 0 N 1026,7 15
22.10.2018 07:00:00 - - - - - - -
22.10.2018 06:00:00 - - - - - - -
22.10.2018 05:00:00 - - - - - - -
22.10.2018 04:00:00 - - - - - - -
22.10.2018 03:00:00 - - - - - - -
22.10.2018 02:00:00 - - - - - - -
22.10.2018 01:00:00 - - - - - - -
22.10.2018 00:00:00 - - - - - - -
21.10.2018 23:00:00 - - - - - - -
21.10.2018 22:00:00 - - - - - - -
21.10.2018 21:00:00 - - - - - - -
21.10.2018 20:00:00 17,3 16,3 5 3 E 1023,0 10
21.10.2018 19:00:00 - - - - - - -
21.10.2018 18:00:00 - - - - - - -
21.10.2018 17:00:00 17,8 16,0 5 3 ENE 1022,3 10
21.10.2018 16:00:00 - - - - - - -
21.10.2018 15:00:00 - - - - - - -
21.10.2018 14:00:00 19,1 15,8 8 4 ENE 1023,1 10
21.10.2018 13:00:00 - - - - - - -
21.10.2018 12:00:00 - - - - - - -
21.10.2018 11:00:00 14,6 13,8 9 5 SW 1023,4 8
21.10.2018 10:00:00 - - - - - - -
21.10.2018 09:00:00 - - - - - - -
21.10.2018 08:00:00 14,4 13,6 0 0 N 1022,7 8
21.10.2018 07:00:00 - - - - - - -
21.10.2018 06:00:00 - - - - - - -
21.10.2018 05:00:00 - - - - - - -
21.10.2018 04:00:00 - - - - - - -
21.10.2018 03:00:00 - - - - - - -
21.10.2018 02:00:00 - - - - - - -
21.10.2018 01:00:00 - - - - - - -
21.10.2018 00:00:00 - - - - - - -
20.10.2018 23:00:00 - - - - - - -
20.10.2018 22:00:00 - - - - - - -
20.10.2018 21:00:00 - - - - - - -
20.10.2018 20:00:00 17,2 16,2 4 2 E 1023,0 15
20.10.2018 19:00:00 - - - - - - -
20.10.2018 18:00:00 - - - - - - -
20.10.2018 17:00:00 18,5 16,3 5 3 ENE 1023,3 15
20.10.2018 16:00:00 - - - - - - -
20.10.2018 15:00:00 - - - - - - -
20.10.2018 14:00:00 17,6 15,4 5 3 NE 1024,5 6
20.10.2018 13:00:00 - - - - - - -
20.10.2018 12:00:00 - - - - - - -
20.10.2018 11:00:00 15,2 13,6 8 4 SSW 1024,6 10
20.10.2018 10:00:00 - - - - - - -
20.10.2018 09:00:00 - - - - - - -
20.10.2018 08:00:00 14,3 13,5 2 1 S 1022,6 15
20.10.2018 07:00:00 - - - - - - -
20.10.2018 06:00:00 - - - - - - -
20.10.2018 05:00:00 - - - - - - -
20.10.2018 04:00:00 - - - - - - -
20.10.2018 03:00:00 - - - - - - -
20.10.2018 02:00:00 - - - - - - -
20.10.2018 01:00:00 - - - - - - -
20.10.2018 00:00:00 - - - - - - -
19.10.2018 23:00:00 - - - - - - -
19.10.2018 22:00:00 - - - - - - -
19.10.2018 21:00:00 - - - - - - -
19.10.2018 20:00:00 17,7 16,6 2 1 E 1021,4 20
19.10.2018 19:00:00 - - - - - - -
19.10.2018 18:00:00 - - - - - - -
19.10.2018 17:00:00 - - - - - - -
19.10.2018 16:00:00 - - - - - - -
19.10.2018 15:00:00 - - - - - - -
19.10.2018 14:00:00 19,0 17,0 8 4 NE 1020,4 8
19.10.2018 13:00:00 - - - - - - -
19.10.2018 12:00:00 - - - - - - -
19.10.2018 11:00:00 16,9 15,9 4 2 W 1020,8 8
19.10.2018 10:00:00 - - - - - - -
19.10.2018 09:00:00 - - - - - - -
19.10.2018 08:00:00 15,7 14,9 5 3 SSW 1018,2 15
19.10.2018 07:00:00 - - - - - - -
19.10.2018 06:00:00 - - - - - - -
19.10.2018 05:00:00 - - - - - - -
19.10.2018 04:00:00 - - - - - - -
19.10.2018 03:00:00 - - - - - - -
19.10.2018 02:00:00 - - - - - - -
19.10.2018 01:00:00 - - - - - - -
19.10.2018 00:00:00 - - - - - - -
18.10.2018 23:00:00 - - - - - - -
18.10.2018 22:00:00 - - - - - - -
18.10.2018 21:00:00 - - - - - - -
18.10.2018 20:00:00 17,7 16,9 0 0 N 1017,1 15
18.10.2018 19:00:00 - - - - - - -
18.10.2018 18:00:00 - - - - - - -
18.10.2018 17:00:00 18,5 17,0 8 4 NE 1017,2 15
18.10.2018 16:00:00 - - - - - - -
18.10.2018 15:00:00 - - - - - - -
18.10.2018 14:00:00 18,1 17,1 4 2 NE 1017,1 15
18.10.2018 13:00:00 - - - - - - -
18.10.2018 12:00:00 - - - - - - -
18.10.2018 11:00:00 17,2 16,2 9 5 NE 1017,3 15
18.10.2018 10:00:00 - - - - - - -
18.10.2018 09:00:00 - - - - - - -
18.10.2018 08:00:00 16,9 15,4 8 4 NE 1015,7 15
18.10.2018 07:00:00 - - - - - - -

tt = Température de l'air
td = dewpoint
ff = Vitesse du vent
dd = Direction du vent
ppp = reduced air pressure
vv = visibility

stations d'obs. à proximité